EHI
0 0 0 0 0 0 1 2 2 1 0 0 0 0 0 0 1 1 6 20 41 53 58 74 91 92 81 66 50 32 18 11 4 0 0 0 1 3 4 3 2 1 0 0 0 0 0 0 0
0 0 0 0 0 0 1 3 3 1 0 0 0 0 0 1 2 3 8 24 47 57 57 70 89 93 84 72 57 40 26 16 8 3 1 0 0 2 3 2 1 0 0 0 0 0 0 0 0
0 0 0 0 1 3 5 5 3 1 0 0 1 1 1 2 4 7 14 31 50 57 57 70 90 94 87 77 65 50 36 25 17 11 6 2 1 0 1 1 0 0 0 0 0 0 0 0 0
0 0 0 0 1 5 8 7 4 1 0 1 3 3 3 7 16 24 25 32 47 55 58 73 90 94 89 80 69 55 42 32 25 19 12 7 3 1 1 0 0 0 0 0 0 0 0 0 0
0 0 0 0 1 3 6 7 4 2 2 4 6 5 4 15 36 43 32 27 40 53 56 66 83 91 88 82 70 56 43 34 29 23 16 11 7 4 2 1 0 1 1 1 0 0 0 0 0
0 0 0 0 0 1 3 4 5 6 7 9 8 5 4 18 39 42 31 24 32 46 47 50 66 78 80 78 68 54 41 34 29 24 18 14 11 8 5 4 2 2 2 1 0 0 0 0 0
0 0 0 0 0 1 1 2 5 10 16 18 13 6 4 13 27 37 38 33 30 34 36 37 45 54 60 61 54 44 36 31 28 23 18 15 15 12 11 10 8 5 3 2 1 2 2 2 1
0 0 0 0 0 0 0 2 6 16 28 33 26 16 9 11 26 47 56 49 37 28 26 27 28 31 33 34 32 28 25 24 22 17 13 12 12 12 12 14 13 9 5 4 4 5 5 5 4
0 0 0 0 0 0 0 3 8 22 41 49 41 28 18 20 38 63 73 63 46 30 19 17 18 18 17 17 18 17 16 16 15 11 9 9 9 8 9 13 14 12 10 9 8 7 8 8 7
0 0 0 0 0 0 0 3 10 26 44 50 43 34 29 33 49 70 77 68 49 30 17 12 12 12 11 12 13 13 11 11 12 11 10 10 9 7 8 10 12 13 15 15 12 9 10 12 11
0 0 0 0 0 0 1 4 12 27 39 40 40 40 41 46 57 67 73 67 51 34 22 15 12 11 10 12 14 13 11 11 13 13 11 11 10 9 10 11 11 13 18 22 20 17 17 18 17
0 0 0 0 0 1 3 8 20 33 39 41 45 50 54 57 60 62 66 65 55 42 32 24 19 18 18 21 22 19 16 16 17 15 13 12 11 10 11 12 11 15 23 29 28 25 24 22 20
0 0 0 0 1 4 8 16 31 44 50 52 55 59 61 61 59 58 60 60 56 48 41 38 37 37 38 40 38 31 25 23 20 16 15 15 15 13 11 10 10 15 23 27 27 24 21 18 17
0 0 0 0 2 6 14 27 42 54 60 62 61 61 61 58 56 55 55 55 53 51 49 51 53 55 56 55 48 38 32 28 23 18 15 16 17 16 12 7 6 10 13 16 16 14 13 11 11
0 0 0 0 1 5 16 32 49 59 64 63 59 57 55 52 52 52 52 51 51 52 54 58 60 58 56 52 43 35 33 30 24 18 14 13 13 12 10 6 5 5 6 6 7 7 7 6 6
0 0 0 0 0 3 14 31 47 57 61 56 50 48 46 46 46 46 45 43 43 45 50 53 53 48 44 40 33 29 26 23 18 13 9 8 7 7 6 5 4 3 3 3 3 3 4 4 4
0 0 0 0 0 3 12 27 39 47 49 44 38 37 38 39 38 36 33 31 30 32 36 37 37 34 31 28 25 21 17 13 9 6 4 4 4 3 3 3 2 1 1 1 1 2 3 3 3
0 0 0 0 2 6 13 22 28 33 32 27 25 25 26 27 26 23 21 21 20 20 20 21 21 20 17 15 14 13 11 8 5 3 3 2 1 1 1 1 1 0 0 0 0 1 2 2 1
0 0 0 1 3 6 11 14 17 18 17 14 13 13 13 13 13 12 12 13 13 14 14 13 12 11 9 8 6 6 6 5 3 1 1 1 0 0 1 1 0 0 0 0 0 1 1 1 0
0 0 0 1 2 4 6 7 8 10 9 7 5 5 5 6 6 6 6 8 9 11 12 11 9 7 6 6 4 2 2 2 1 0 0 0 0 0 1 1 0 0 0 0 0 0 0 0 0
0 0 0 0 1 2 3 3 4 5 4 3 1 1 1 2 2 3 3 4 5 7 9 9 7 5 4 4 3 2 2 1 0 0 0 0 0 0 0 0 0 0 0 0 0 0 0 0 0
0 0 0 0 0 1 1 2 2 2 2 1 0 0 0 0 0 1 1 1 2 4 7 6 5 4 3 2 1 1 1 1 0 0 0 0 0 0 0 0 0 0 0 0 0 0 0 0 0
0 0 0 0 0 0 0 0 0 1 1 1 0 0 0 0 0 0 0 0 0 2 4 4 4 4 3 2 1 0 0 0 0 0 0 0 0 0 0 0 0 0 0 0 0 0 0 0 0
0 0 0 0 0 0 0 0 0 0 0 0 0 0 0 0 0 0 0 0 0 2 2 3 4 4 3 2 1 0 0 0 0 0 0 0 0 0 0 0 0 0 0 0 0 0 0 0 0
0 0 0 0 0 0 0 0 0 0 0 0 0 0 0 0 0 0 0 0 1 1 1 2 3 3 3 2 1 0 0 0 0 0 0 0 0 0 0 0 0 0 0 0 0 0 0 0 0
0 0 0 0 0 0 0 0 0 0 0 0 0 0 0 0 0 0 0 0 1 0 1 2 3 2 1 1 0 0 0 0 0 0 0 0 0 0 0 0 0 0 0 0 0 0 0 0 0
0 0 0 0 0 0 0 0 0 0 0 0 0 0 0 0 0 0 0 0 0 0 1 2 2 1 0 0 0 0 0 0 0 0 0 0 0 0 0 0 0 0 0 0 0 0 0 0 0
0 0 0 0 0 0 0 0 0 0 0 0 0 0 0 0 0 0 0 0 0 0 0 1 1 0 0 0 0 0 0 0 0 0 0 0 0 0 0 0 0 0 0 0 0 0 0 0 0
0 0 0 0 0 0 0 0 0 0 0 0 0 0 0 0 0 0 0 0 0 0 0 0 0 0 0 0 0 0 0 0 0 0 0 0 0 0 0 0 0 0 0 0 0 0 0 0 0
0 0 0 0 0 0 0 0 0 0 0 0 0 0 0 0 0 0 0 0 0 0 0 0 0 0 0 0 0 0 0 0 0 0 0 0 0 0 0 0 0 0 0 0 0 0 0 0 0
Wind_Speed
9 6 2 0 1 1 4 6 5 6 5 3 5 8 7 5 4 4 3 15 18 17 13 16 19 19 19 18 18 17 17 16 16 15 15 15 14 14 14 13 13 13 12 12 12 12 12 11 11
6 5 1 1 1 1 6 6 5 7 5 1 5 7 7 7 8 9 6 14 19 17 12 14 19 19 19 18 17 17 17 16 16 15 15 14 14 13 13 12 12 12 12 11 11 11 11 11 10
6 4 1 1 1 4 6 7 8 7 6 1 3 5 5 5 7 6 9 16 16 13 10 14 20 19 19 18 17 16 16 16 15 15 14 14 13 13 12 12 12 11 11 11 11 11 11 10 9
3 1 1 1 6 8 9 10 8 6 3 3 5 5 4 2 5 11 17 17 16 11 9 14 20 19 18 17 17 16 16 15 15 15 14 14 13 12 12 12 11 11 11 11 11 10 10 9 9
2 2 1 4 7 8 11 13 8 4 1 3 7 6 3 4 16 20 17 16 16 11 8 12 19 18 18 17 16 15 15 15 14 14 13 13 13 12 12 12 11 11 10 10 11 10 10 9 8
1 1 2 5 7 8 10 10 5 3 4 5 7 6 2 6 16 17 16 14 14 14 9 10 18 18 17 16 16 15 14 14 14 13 13 13 12 12 12 12 11 11 11 11 11 10 10 10 9
2 1 4 6 7 8 8 5 1 5 6 4 5 6 3 5 12 15 15 14 13 13 10 7 9 12 16 16 15 15 14 13 13 13 12 12 12 12 12 11 11 12 12 12 12 12 11 11 10
4 1 4 4 6 9 9 6 2 4 5 4 4 7 4 5 9 13 14 13 12 10 9 7 7 7 7 9 14 15 14 14 13 13 13 12 12 12 12 10 11 13 13 13 14 14 13 13 12
1 0 5 5 6 9 10 7 3 4 7 6 5 5 6 8 13 15 13 11 9 9 7 7 7 7 6 6 11 12 13 13 13 11 13 11 5 6 7 10 13 14 15 15 15 15 15 14 13
4 4 10 9 8 10 13 8 2 5 7 6 7 7 8 10 13 14 13 11 9 9 8 7 8 8 7 7 6 4 5 5 6 4 6 5 4 5 7 9 15 16 17 17 17 16 15 12 6
5 8 12 15 16 12 11 8 2 6 4 5 10 9 9 11 12 12 10 9 9 8 8 7 7 7 7 5 5 3 3 3 4 5 5 4 4 4 5 3 7 10 13 9 10 11 7 6 5
6 12 13 14 16 11 10 4 3 4 6 8 10 10 11 11 10 10 9 8 7 7 6 7 7 6 6 4 4 4 3 3 3 4 6 5 3 4 3 3 4 5 5 6 6 5 7 7 8
7 11 12 14 13 9 6 0 6 9 13 14 14 14 13 10 9 9 10 8 6 5 5 5 5 5 4 4 3 4 3 3 3 3 4 4 4 3 3 2 3 4 4 4 5 6 7 8 8
7 8 10 11 10 5 0 4 8 9 13 15 15 13 12 11 9 9 9 6 4 4 3 3 4 3 4 3 2 2 2 3 2 2 3 3 3 2 2 2 2 3 3 4 5 7 7 7 7
5 8 11 7 5 3 4 9 9 10 13 15 15 13 13 10 9 8 6 7 5 3 3 4 4 4 4 4 3 2 2 2 2 2 2 2 2 2 2 2 2 2 3 3 3 5 5 5 6
6 5 6 8 6 5 9 7 7 7 13 13 12 12 11 8 7 7 6 5 4 5 5 5 5 4 4 3 3 2 2 2 2 2 1 1 1 2 1 1 2 2 2 2 3 3 4 4 5
5 3 6 8 7 5 9 6 6 6 10 10 8 8 8 7 6 5 6 5 4 4 5 5 5 4 4 3 3 2 2 2 1 1 1 1 1 1 1 1 2 2 2 2 3 2 3 4 4
5 3 4 5 5 9 10 8 8 6 7 7 7 5 6 6 5 5 5 4 4 4 5 5 5 4 3 3 3 3 3 2 1 0 1 1 1 1 1 1 2 2 2 2 2 3 3 3 3
5 3 3 3 2 9 11 9 7 6 6 4 5 5 4 4 4 4 4 5 5 4 4 4 4 3 2 2 1 2 1 1 1 1 1 1 1 1 1 1 1 1 2 3 3 3 3 3 2
3 3 2 1 4 7 8 7 4 5 4 3 3 4 2 2 2 3 4 4 4 4 4 4 3 2 2 1 1 1 1 1 0 1 2 1 2 2 2 2 2 2 2 2 3 2 2 2 2
3 3 3 3 4 7 5 4 3 2 2 1 2 2 2 4 5 5 4 4 4 5 5 4 4 3 2 1 1 2 2 2 2 2 2 3 3 3 2 2 2 2 2 2 3 2 2 2 2
3 2 3 4 5 3 3 1 3 3 2 1 1 2 4 4 4 5 5 6 6 6 5 5 4 3 2 2 2 1 1 1 2 2 2 4 3 3 3 3 3 3 2 2 3 2 2 2 2
2 1 4 6 6 4 4 1 3 3 3 4 4 5 4 4 5 5 6 7 6 5 4 4 3 3 2 2 2 2 1 2 2 2 3 4 4 4 3 3 3 3 3 3 3 2 2 2 2
6 6 7 7 5 3 3 1 4 3 4 4 5 6 5 4 5 5 5 3 2 3 3 3 3 2 2 2 2 2 3 3 3 4 4 3 3 3 3 3 3 3 3 3 3 2 2 2 2
5 5 4 6 5 1 3 1 5 6 6 6 6 6 6 4 3 3 3 3 2 3 3 2 2 1 1 1 2 2 3 3 4 4 4 4 3 3 4 3 3 3 4 4 3 3 3 3 3
1 6 6 3 3 2 2 3 7 7 6 6 5 4 3 3 2 2 3 3 2 2 3 2 2 1 1 1 3 3 3 2 3 4 3 4 3 4 5 4 4 4 4 4 4 3 4 3 3
2 1 5 7 4 2 2 4 7 4 5 5 4 4 3 2 2 3 4 4 4 3 3 2 2 1 2 2 3 3 3 3 3 4 3 3 4 4 4 4 4 5 5 5 5 4 5 4 4
4 4 5 5 5 2 2 3 4 5 5 4 4 4 4 3 3 4 4 4 3 2 2 1 1 0 1 2 2 2 3 4 4 3 4 4 5 4 5 5 5 5 5 5 5 4 5 5 5
4 3 4 4 5 6 3 4 6 8 7 6 6 6 5 4 4 4 3 2 2 2 1 1 1 1 2 2 3 3 4 4 4 4 5 5 5 5 5 6 6 6 6 5 5 6 6 6 6
2 2 5 4 0 4 5 4 4 7 6 6 6 5 5 5 4 4 3 2 1 1 1 2 2 2 3 3 3 4 4 4 4 5 6 5 6 6 6 6 6 7 6 6 6 7 7 7 7
Wind_Direction
165 159 162 126 39 23 273 261 271 303 318 349 55 82 85 69 114 140 121 140 137 144 150 149 147 145 144 142 141 140 138 136 135 133 132 132 131 131 131 131 132 132 131 131 131 130 128 127 126
161 165 157 46 84 360 278 260 270 274 267 7 53 70 72 68 81 101 114 140 140 142 145 148 147 146 145 144 144 143 142 142 142 141 141 141 140 140 139 138 138 140 139 139 139 138 136 136 135
174 184 145 96 218 209 254 267 262 272 285 290 77 45 57 86 100 111 136 138 135 137 139 150 148 147 147 146 146 146 146 147 147 148 149 149 148 149 149 148 147 147 148 149 149 147 146 146 146
162 146 328 229 243 242 244 262 264 269 318 14 99 64 37 37 112 126 135 138 134 133 137 150 148 148 149 149 150 151 152 152 154 155 156 156 157 159 159 158 157 158 159 158 158 158 157 158 161
105 133 230 255 243 246 255 259 242 240 223 98 103 92 38 23 112 128 138 141 137 134 139 149 148 150 151 152 155 156 156 158 159 161 162 163 164 166 167 168 169 171 171 170 169 171 171 174 178
114 152 221 258 265 275 256 250 245 191 145 119 104 105 89 116 125 138 141 140 138 139 140 147 151 152 153 156 158 159 161 162 164 166 168 170 172 176 178 178 181 182 183 182 182 184 185 188 192
170 204 241 265 294 297 290 279 239 125 111 118 123 103 113 137 139 140 138 134 134 139 141 143 151 154 157 159 162 164 165 167 170 172 175 178 182 185 188 189 192 193 193 194 194 195 197 200 202
187 122 288 291 299 290 302 335 3 106 114 109 104 122 165 169 131 128 126 126 130 137 144 144 147 150 156 163 169 171 173 175 178 181 184 188 192 195 200 200 203 204 204 204 204 204 205 207 210
203 63 265 262 271 279 305 325 349 59 85 74 75 116 153 141 121 118 120 120 131 141 152 155 157 158 159 165 178 177 180 183 186 190 194 195 199 202 208 213 214 216 215 214 214 213 212 213 216
161 207 246 241 252 278 298 303 289 97 78 73 77 83 113 115 116 121 130 135 142 153 168 171 171 170 168 179 173 175 185 186 188 188 198 194 192 206 215 225 226 225 224 222 222 222 219 217 216
198 224 253 264 266 268 279 294 334 126 102 144 137 127 109 97 100 109 124 138 148 159 173 177 177 175 178 181 163 177 187 187 194 196 201 201 201 210 220 220 237 233 229 224 225 227 221 217 211
237 254 258 267 272 268 263 272 50 98 133 125 113 103 85 90 94 104 112 118 125 145 183 176 173 175 185 173 166 174 186 192 199 207 206 203 209 215 220 214 225 223 220 213 215 217 217 220 219
250 259 267 270 277 270 270 96 95 86 99 102 95 83 82 90 93 94 103 111 121 140 168 163 160 163 162 147 158 157 171 174 182 197 207 203 207 215 216 231 234 225 217 210 216 221 221 222 223
254 276 291 295 290 291 105 85 85 93 101 90 82 78 81 82 82 88 94 109 103 103 113 131 123 125 118 119 131 143 147 148 156 172 180 182 192 203 211 227 240 238 221 221 222 225 223 226 225
299 320 317 315 320 316 75 52 73 107 102 92 87 86 85 87 90 89 91 93 96 91 102 121 111 97 96 104 111 113 121 127 134 155 162 166 176 179 189 218 238 247 239 231 229 227 225 228 227
351 350 324 315 347 345 82 80 58 85 96 89 89 89 90 89 93 97 99 96 96 91 82 75 88 78 81 85 90 94 105 112 128 143 149 157 174 188 190 222 247 259 254 238 230 223 227 234 231
2 331 307 319 5 34 76 92 62 69 89 91 90 94 97 94 87 96 109 110 102 94 90 83 77 70 62 61 61 59 67 82 120 134 149 162 189 190 198 226 256 264 257 247 244 226 226 237 243
271 290 298 313 9 70 82 78 67 51 81 98 97 92 99 108 120 119 113 113 106 99 92 87 79 67 56 46 35 33 33 24 35 130 181 181 216 225 222 247 276 276 269 265 252 247 242 238 245
246 271 304 323 72 81 83 77 58 37 49 71 95 95 91 110 140 131 126 123 111 101 96 90 87 79 73 59 37 32 1 336 347 319 274 246 257 241 218 246 270 268 259 258 254 246 252 253 244
274 259 262 34 60 85 91 82 71 59 43 30 60 85 102 145 156 144 140 140 134 135 132 128 128 125 114 119 137 168 222 278 275 339 323 294 274 255 233 224 242 253 262 279 268 242 245 258 231
302 231 218 162 78 67 87 35 3 8 45 51 102 137 184 193 187 172 165 167 163 165 167 161 165 154 147 129 77 33 24 8 1 341 308 299 284 268 250 231 232 246 236 253 268 256 228 254 259
284 245 158 125 98 47 45 264 304 316 334 318 206 218 219 220 200 187 181 184 189 191 179 173 174 172 170 139 118 126 138 262 263 265 277 292 288 276 257 236 229 234 230 232 247 228 237 234 256
201 93 103 109 101 69 17 86 296 314 303 290 267 244 236 223 207 201 198 195 195 186 174 176 174 181 191 180 170 167 215 237 263 282 299 299 293 285 274 256 240 231 229 233 241 245 238 226 237
119 78 56 58 71 54 329 43 295 263 252 274 277 265 243 223 217 205 208 184 167 149 146 153 159 201 224 217 212 209 233 252 277 291 293 291 289 288 280 262 248 241 234 235 236 235 240 240 252
83 86 42 21 30 305 300 345 263 257 247 248 260 264 257 228 216 202 191 169 152 136 135 132 143 224 261 252 259 248 244 249 255 265 270 277 282 282 278 264 246 245 242 241 239 237 244 245 253
130 126 146 167 184 233 296 261 264 265 264 264 260 259 260 250 221 172 165 137 116 115 113 115 131 208 270 274 280 285 281 268 263 261 260 261 256 260 264 257 249 245 242 242 237 243 244 239 246
96 71 150 124 109 116 251 281 295 269 263 256 238 227 226 215 158 136 121 110 110 112 117 132 141 237 282 285 289 294 292 282 278 279 273 268 267 274 275 265 259 254 247 238 230 236 242 236 236
133 141 85 98 132 137 205 238 241 238 232 229 208 192 194 172 128 121 117 118 120 124 120 111 117 242 291 304 300 303 292 285 280 283 283 276 274 276 282 277 269 264 257 249 235 236 239 235 235
18 44 101 116 146 142 174 255 224 203 198 187 188 183 175 153 138 137 133 127 120 99 81 46 2 336 316 309 303 307 299 295 292 284 279 278 275 276 274 270 267 264 260 253 242 240 240 236 237
187 195 139 123 24 127 135 258 250 181 182 172 177 174 155 142 141 140 134 114 84 41 357 341 323 312 296 291 297 296 295 298 298 291 285 281 277 275 271 269 267 264 261 250 242 246 246 235 235